Location: Alvis C Story Elementary School
(33.0968°N, 96.6364°W)
Time: 18:50:24
(UTC+00:00)

H-2A R/B - Visible Passes

Search period start: 28 June 2022 00:00
Search period end: 08 July 2022 00:00
Orbit: 576 x 653 km, 98.5° (Epoch: 28 June)

Date Brightness Start Highest point End Pass type
(mag) Time Alt. Az. Time Alt. Az. Time Alt. Az.
28 Jun 4.5 03:31:34 10° NNW 03:35:01 23° WNW 03:38:30 10° WSW visible
29 Jun 2.6 02:10:40 10° NNE 02:14:48 39° E 02:18:58 10° SSE visible
29 Jun 5.0 03:47:44 10° NNW 03:50:23 16° WNW 03:53:02 10° WSW visible
30 Jun 2.2 02:25:57 10° NNE 02:30:20 60° ESE 02:34:44 10° S visible
30 Jun 5.3 04:04:48 10° NW 04:05:42 11° WNW 04:06:37 10° WNW visible
01 Jul 2.1 02:41:22 10° NNE 02:45:49 89° WNW 02:50:18 10° SSW visible
02 Jul 2.8 02:56:55 10° N 03:01:17 58° WNW 03:05:41 10° SSW visible
03 Jul 3.6 03:12:35 10° N 03:16:42 38° WNW 03:20:52 10° SW visible
04 Jul 4.3 03:28:25 10° NNW 03:32:06 26° WNW 03:35:49 10° SW visible
05 Jul 2.8 02:07:47 10° NNE 02:11:51 34° E 02:15:57 10° SSE visible
05 Jul 4.9 03:44:28 10° NNW 03:47:29 18° WNW 03:50:30 10° WSW visible
06 Jul 2.3 02:23:00 10° NNE 02:27:23 52° E 02:31:45 10° S visible
06 Jul 5.2 04:01:00 10° NW 04:02:48 12° WNW 04:04:37 10° W visible
07 Jul 2.1 02:38:23 10° NNE 02:42:52 80° ESE 02:47:22 10° S visible
